EW1268 Weather Reports


Display with metric or nautical units.
time (UTC)temp
F
wind
direction
speed
MPH
gust
MPH
rain 1hr
in
rain 24hr
in
rain mn
in
humidity
%
barometer
mb
20260506000512 81 175 5.0 13.0 0.00 0.00 0.00 83 1006.8
20260506000014 81 188 6.0 13.0 0.00 0.00 0.00 84 1006.8
20260505235504 81 166 6.0 13.0 0.00 0.00 0.00 83 1006.8
20260505235011 81 185 6.0 13.0 0.00 0.00 0.00 83 1006.6
20260505234519 81 152 5.0 13.0 0.00 0.00 0.00 83 1006.6
20260505234009 81 315 6.0 17.0 0.00 0.00 0.00 83 1006.6
20260505233510 81 207 7.0 17.0 0.00 0.00 0.00 83 1006.5
20260505233028 82 175 4.0 13.0 0.00 0.00 0.00 83 1006.6
20260505232517 81 190 5.0 15.0 0.00 0.00 0.00 83 1006.7
20260505232009 82 178 7.0 17.0 0.00 0.00 0.00 82 1006.7
20260505231529 82 218 7.0 17.0 0.00 0.00 0.00 82 1006.6
20260505231007 82 196 7.0 16.0 0.00 0.00 0.00 82 1006.6
20260505230507 82 195 6.0 13.0 0.00 0.00 0.00 82 1006.7
20260505230038 83 9 3.0 15.0 0.00 0.00 0.00 83 1006.6
20260505225511 83 182 6.0 16.0 0.00 0.00 0.00 83 1006.6
20260505225010 82 194 7.0 16.0 0.00 0.00 0.00 82 1006.6
20260505224533 83 93 4.0 17.0 0.00 0.00 0.00 82 1006.6
20260505224005 83 200 6.0 17.0 0.00 0.00 0.00 82 1006.7
20260505223507 83 265 8.0 16.0 0.00 0.00 0.00 81 1006.7
20260505223017 84 178 4.0 15.0 0.00 0.00 0.00 81 1006.7
20260505222510 84 175 6.0 15.0 0.00 0.00 0.00 81 1006.8
20260505222008 84 170 5.0 14.0 0.00 0.00 0.00 81 1006.7
20260505221526 84 197 4.0 14.0 0.00 0.00 0.00 81 1006.8
20260505221010 84 175 6.0 11.0 0.00 0.00 0.00 80 1006.8
20260505220509 84 234 4.0 15.0 0.00 0.00 0.00 80 1006.8
20260505220013 84 183 7.0 15.0 0.00 0.00 0.00 79 1006.9
20260505215508 84 178 5.0 13.0 0.00 0.00 0.00 80 1007.0
20260505215007 84 194 6.0 15.0 0.00 0.00 0.00 80 1007.1
20260505214521 84 185 5.0 15.0 0.00 0.00 0.00 80 1007.0
20260505214008 84 167 6.0 15.0 0.00 0.00 0.00 79 1007.1
20260505213508 84 189 7.0 15.0 0.00 0.00 0.00 79 1007.2
20260505213029 84 178 6.0 17.0 0.00 0.00 0.00 80 1007.2
20260505212513 84 137 4.0 19.0 0.00 0.00 0.00 79 1007.3
20260505212006 85 196 6.0 19.0 0.00 0.00 0.00 79 1007.2
20260505211520 84 187 6.0 15.0 0.00 0.00 0.00 79 1007.3
20260505211007 84 227 7.0 15.0 0.00 0.00 0.00 79 1007.3
20260505210508 84 184 5.0 15.0 0.00 0.00 0.00 80 1007.5
20260505210026 84 194 4.0 15.0 0.00 0.00 0.00 80 1007.6
20260505205513 84 164 4.0 14.0 0.00 0.00 0.00 80 1007.7
20260505205011 84 146 6.0 13.0 0.00 0.00 0.00 80 1007.7
20260505204527 84 169 7.0 14.0 0.00 0.00 0.00 80 1007.9
20260505204012 84 183 5.0 18.0 0.00 0.00 0.00 80 1008.0
20260505203510 84 171 8.0 18.0 0.00 0.00 0.00 79 1008.0
20260505203028 85 159 6.0 11.0 0.00 0.00 0.00 80 1008.0
20260505202510 85 229 6.0 16.0 0.00 0.00 0.00 79 1008.0
20260505202010 85 157 6.0 16.0 0.00 0.00 0.00 79 1008.2
20260505201526 85 93 4.0 13.0 0.00 0.00 0.00 80 1008.2
20260505201011 85 186 4.0 13.0 0.00 0.00 0.00 81 1008.3
20260505200511 84 153 4.0 13.0 0.00 0.00 0.00 81 1008.4
20260505200012 84 169 6.0 15.0 0.00 0.00 0.00 80 1008.4
20260505195507 84 178 3.0 15.0 0.00 0.00 0.00 80 1008.4
20260505195009 84 197 6.0 14.0 0.00 0.00 0.00 81 1008.5
20260505194522 84 157 6.0 14.0 0.00 0.00 0.00 81 1008.6
20260505194012 83 171 3.0 12.0 0.00 0.00 0.00 81 1008.7
20260505193510 84 81 5.0 15.0 0.00 0.00 0.00 82 1008.7
20260505193028 83 197 6.0 15.0 0.00 0.00 0.00 82 1008.7
20260505192511 83 163 4.0 10.0 0.00 0.00 0.00 83 1008.7
20260505192009 83 178 4.0 12.0 0.00 0.00 0.00 83 1008.7
20260505191515 82 178 4.0 12.0 0.00 0.00 0.00 82 1008.8
20260505191009 83 190 4.0 12.0 0.00 0.00 0.00 82 1008.9
20260505190514 83 175 2.0 13.0 0.00 0.00 0.00 83 1008.9
20260505190033 82 9 6.0 15.0 0.00 0.00 0.00 82 1008.8
20260505185511 83 192 5.0 17.0 0.00 0.00 0.00 82 1008.9
20260505185011 83 187 5.0 17.0 0.00 0.00 0.00 82 1008.8
20260505184528 83 185 4.0 10.0 0.00 0.00 0.00 83 1008.9
20260505184007 82 265 4.0 15.0 0.00 0.00 0.00 82 1008.9
20260505183508 82 195 4.0 15.0 0.00 0.00 0.00 82 1008.9
20260505183019 82 238 4.0 12.0 0.00 0.00 0.00 83 1009.1
20260505182511 82 184 4.0 11.0 0.00 0.00 0.00 83 1009.1
20260505182016 81 192 4.0 10.0 0.00 0.00 0.00 84 1009.2
20260505181532 81 216 2.0 12.0 0.00 0.00 0.00 83 1009.3
20260505181009 81 199 4.0 12.0 0.00 0.00 0.00 84 1009.3
20260505180509 81 157 3.0 12.0 0.00 0.00 0.00 85 1009.3
20260505180016 81 209 3.0 10.0 0.00 0.00 0.00 84 1009.4
20260505175512 81 165 3.0 10.0 0.00 0.00 0.00 84 1009.4
20260505175016 81 216 4.0 11.0 0.00 0.00 0.00 84 1009.3
20260505174525 81 189 5.0 11.0 0.00 0.00 0.00 84 1009.4
20260505174012 81 243 4.0 9.0 0.00 0.00 0.00 85 1009.5
20260505173509 80 205 3.0 8.0 0.00 0.00 0.00 85 1009.5
20260505173011 80 169 4.0 11.0 0.00 0.00 0.00 84 1009.6
20260505172506 80 188 3.0 11.0 0.00 0.00 0.00 84 1009.5
20260505172007 80 227 4.0 12.0 0.00 0.00 0.00 84 1009.5
20260505171527 80 241 6.0 12.0 0.00 0.00 0.00 84 1009.5
20260505171009 80 173 4.0 12.0 0.00 0.00 0.00 85 1009.5
20260505170511 80 214 5.0 14.0 0.00 0.00 0.00 85 1009.5
20260505170026 80 161 5.0 14.0 0.00 0.00 0.00 85 1009.7
20260505165511 80 275 5.0 12.0 0.00 0.00 0.00 85 1009.6
20260505165004 80 178 4.0 12.0 0.00 0.00 0.00 85 1009.6
20260505164510 80 193 6.0 12.0 0.00 0.00 0.00 86 1009.5
20260505164008 80 225 4.0 11.0 0.00 0.00 0.00 86 1009.6
20260505163509 79 153 3.0 11.0 0.00 0.00 0.00 87 1009.5
20260505163020 79 207 3.0 9.0 0.00 0.00 0.00 88 1009.6
20260505162507 78 190 3.0 7.0 0.00 0.00 0.00 88 1009.5
20260505162011 78 146 4.0 10.0 0.00 0.00 0.00 88 1009.6
20260505161528 78 196 4.0 10.0 0.00 0.00 0.00 87 1009.7
20260505161003 78 189 3.0 12.0 0.00 0.00 0.00 86 1009.4
20260505160515 79 9 5.0 13.0 0.00 0.00 0.00 87 1009.5
20260505153008 78 202 4.0 10.0 0.00 0.00 0.00 88 1009.2
20260505152509 78 177 4.0 10.0 0.00 0.00 0.00 88 1009.3
20260505152013 77 209 4.0 11.0 0.00 0.00 0.00 89 1009.3
20260505151529 77 213 4.0 11.0 0.00 0.00 0.00 88 1009.3
20260505151011 77 271 2.0 11.0 0.00 0.00 0.00 89 1009.4
20260505150513 76 177 5.0 11.0 0.00 0.00 0.00 89 1009.4
20260505140506 75 164 6.0 13.0 0.00 0.00 0.00 91 1008.8
20260505125011 72 164 4.0 8.0 0.00 0.00 0.00 94 1009.1
20260505124520 71 183 3.0 6.0 0.00 0.00 0.00 94 1009.0
20260505124009 71 178 2.0 6.0 0.00 0.00 0.00 94 1009.0
20260505123506 71 334 1.0 6.0 0.00 0.00 0.00 94 1009.0
20260505123027 71 161 2.0 7.0 0.00 0.00 0.00 93 1009.0
20260505122510 70 178 2.0 7.0 0.00 0.00 0.00 93 1008.8
20260505122007 70 157 2.0 5.0 0.00 0.00 0.00 93 1008.8
20260505121533 70 224 2.0 7.0 0.00 0.00 0.00 93 1008.8
20260505121005 70 186 2.0 7.0 0.00 0.00 0.00 93 1008.7
20260505120511 70 196 1.0 7.0 0.00 0.00 0.00 93 1008.6
20260505120048 70 190 1.0 7.0 0.00 0.00 0.00 93 1008.6
20260505115511 70 169 2.0 8.0 0.00 0.00 0.00 93 1008.5
20260505115015 70 173 3.0 8.0 0.00 0.00 0.00 93 1008.2
20260505114526 70 190 3.0 8.0 0.00 0.00 0.00 93 1008.3
20260505114012 70 186 2.0 5.0 0.00 0.00 0.00 93 1008.6
20260505113510 70 188 1.0 6.0 0.00 0.00 0.00 93 1008.7
20260505113013 70 165 2.0 6.0 0.00 0.00 0.00 93 1008.7
20260505112508 70 190 1.0 6.0 0.00 0.00 0.00 93 1008.6
20260505112006 70 168 3.0 6.0 0.00 0.00 0.00 93 1008.6
20260505111526 70 178 3.0 8.0 0.00 0.00 0.00 93 1008.4
20260505111010 70 169 3.0 8.0 0.00 0.00 0.00 93 1008.4
20260505110509 70 192 3.0 8.0 0.00 0.00 0.00 92 1008.3
20260505102015 70 205 3.0 9.0 0.00 0.00 0.00 92 1008.6
20260505101529 70 143 3.0 9.0 0.00 0.00 0.00 92 1008.5
20260505101013 70 178 3.0 9.0 0.00 0.00 0.00 92 1008.5
20260505100508 70 193 4.0 9.0 0.00 0.00 0.00 92 1008.6
20260505100026 70 168 3.0 7.0 0.00 0.00 0.00 92 1008.7
20260505095509 70 200 3.0 7.0 0.00 0.00 0.00 92 1008.7
20260505095013 70 93 3.0 9.0 0.00 0.00 0.00 92 1008.7
20260505094528 70 161 2.0 9.0 0.00 0.00 0.00 92 1008.7
20260505094011 70 160 4.0 7.0 0.00 0.00 0.00 92 1008.5
20260505093511 70 200 2.0 7.0 0.00 0.00 0.00 92 1008.5
20260505093030 70 173 3.0 7.0 0.00 0.00 0.00 92 1008.6
20260505092507 70 168 3.0 7.0 0.00 0.00 0.00 91 1008.7
20260505092012 70 207 1.0 8.0 0.00 0.00 0.00 91 1008.7
20260505091527 70 178 1.0 8.0 0.00 0.00 0.00 91 1008.7
20260505091012 70 173 2.0 7.0 0.00 0.00 0.00 91 1008.9
20260505090508 70 178 2.0 7.0 0.00 0.00 0.00 91 1008.9
20260505090026 70 198 2.0 7.0 0.00 0.00 0.00 91 1008.9
20260505085510 70 178 2.0 8.0 0.00 0.00 0.00 91 1008.8
20260505085006 70 171 3.0 8.0 0.00 0.00 0.00 91 1008.8
20260505084524 70 211 3.0 7.0 0.00 0.00 0.00 91 1008.9
20260505084013 70 153 2.0 6.0 0.00 0.00 0.00 91 1008.9
20260505083514 70 178 3.0 6.0 0.00 0.00 0.00 91 1009.0
20260505083026 70 205 2.0 6.0 0.00 0.00 0.00 91 1009.1
20260505082509 70 171 2.0 6.0 0.00 0.00 0.00 91 1009.2
20260505082004 70 221 2.0 5.0 0.00 0.00 0.00 91 1009.1
20260505081514 70 190 1.0 6.0 0.00 0.00 0.00 91 1009.1
20260505081006 70 205 2.0 10.0 0.00 0.00 0.00 91 1009.2
20260505080508 70 193 4.0 10.0 0.00 0.00 0.00 90 1009.3
20260505080024 70 165 3.0 9.0 0.00 0.00 0.00 90 1009.3
20260505075509 70 178 1.0 6.0 0.00 0.00 0.00 90 1009.4
20260505075008 70 157 2.0 6.0 0.00 0.00 0.00 90 1009.4
20260505074527 70 163 2.0 8.0 0.00 0.00 0.00 90 1009.4
20260505074006 70 221 2.0 9.0 0.00 0.00 0.00 90 1009.3
20260505073507 70 188 3.0 9.0 0.00 0.00 0.00 90 1009.4
20260505073028 70 178 3.0 9.0 0.00 0.00 0.00 90 1009.4
20260505072511 70 211 3.0 10.0 0.00 0.00 0.00 90 1009.4
20260505072007 70 163 3.0 10.0 0.00 0.00 0.00 90 1009.4
20260505071526 70 178 3.0 10.0 0.00 0.00 0.00 90 1009.4
20260505071010 70 188 3.0 11.0 0.00 0.00 0.00 90 1009.6
20260505070513 70 155 3.0 11.0 0.00 0.00 0.00 90 1009.7
20260505070013 70 178 3.0 8.0 0.00 0.00 0.00 89 1009.6
20260505065508 70 168 3.0 8.0 0.00 0.00 0.00 89 1009.7
20260505065008 70 175 3.0 7.0 0.00 0.00 0.00 89 1009.8
20260505064536 70 171 3.0 8.0 0.00 0.00 0.00 89 1009.9
20260505064007 70 199 3.0 9.0 0.00 0.00 0.00 89 1009.9
20260505063508 70 159 3.0 10.0 0.00 0.00 0.00 89 1010.0
20260505063025 70 175 3.0 10.0 0.00 0.00 0.00 89 1010.2
20260505062511 70 184 4.0 13.0 0.00 0.00 0.00 89 1010.3
20260505062004 70 199 3.0 13.0 0.00 0.00 0.00 89 1010.2
20260505061528 70 169 3.0 10.0 0.00 0.00 0.00 89 1010.2
20260505061006 70 173 3.0 10.0 0.00 0.00 0.00 89 1010.3
20260505060510 70 185 3.0 8.0 0.00 0.00 0.00 89 1010.5
20260505060024 70 169 4.0 9.0 0.00 0.00 0.00 89 1010.3
20260505055512 70 189 3.0 9.0 0.00 0.00 0.00 88 1010.2
20260505055012 70 178 4.0 9.0 0.00 0.00 0.00 88 1010.3
20260505054547 70 196 4.0 10.0 0.00 0.00 0.00 88 1010.2
20260505054012 70 195 3.0 10.0 0.00 0.00 0.00 88 1010.2
20260505053507 70 236 4.0 10.0 0.00 0.00 0.00 88 1010.3
20260505053018 70 182 5.0 11.0 0.00 0.00 0.00 88 1010.4
20260505052508 70 173 5.0 11.0 0.00 0.00 0.00 88 1010.7
20260505052008 70 178 3.0 10.0 0.00 0.00 0.00 88 1010.8
20260505051526 70 200 3.0 10.0 0.00 0.00 0.00 88 1010.8
20260505051014 70 163 3.0 8.0 0.00 0.00 0.00 88 1010.8
20260505050509 70 164 4.0 9.0 0.00 0.00 0.00 88 1010.8
20260505041516 71 202 3.0 12.0 0.00 0.00 0.00 87 1010.8
20260505041007 71 194 4.0 12.0 0.00 0.00 0.00 87 1010.8
20260505040507 71 185 5.0 10.0 0.00 0.00 0.00 86 1010.9
20260505040024 71 175 5.0 11.0 0.00 0.00 0.00 86 1010.9
20260505035507 71 170 4.0 13.0 0.00 0.00 0.00 86 1010.9
20260505035010 71 202 6.0 13.0 0.00 0.00 0.00 86 1010.8
20260505034527 71 197 3.0 10.0 0.00 0.00 0.00 86 1010.9
20260505034011 71 221 3.0 11.0 0.00 0.00 0.00 86 1011.0
20260505033507 71 171 5.0 11.0 0.00 0.00 0.00 86 1011.0
20260505033022 71 169 3.0 10.0 0.00 0.00 0.00 86 1011.1
20260505032509 71 183 4.0 10.0 0.00 0.00 0.00 86 1011.1
20260505032011 72 157 4.0 11.0 0.00 0.00 0.00 86 1011.0
20260505031539 72 171 5.0 11.0 0.00 0.00 0.00 85 1011.1
20260505031007 72 183 4.0 11.0 0.00 0.00 0.00 85 1011.0
20260505030511 72 198 3.0 11.0 0.00 0.00 0.00 85 1011.0
20260505030031 72 175 5.0 11.0 0.00 0.00 0.00 85 1010.9
20260505025507 72 188 5.0 11.0 0.00 0.00 0.00 85 1011.0
20260505025008 72 182 4.0 10.0 0.00 0.00 0.00 84 1011.0
20260505024531 73 182 3.0 11.0 0.00 0.00 0.00 84 1011.0
20260505024009 73 51 4.0 11.0 0.00 0.00 0.00 84 1011.0
20260505023507 73 182 4.0 11.0 0.00 0.00 0.00 84 1011.0
20260505023030 73 197 5.0 11.0 0.00 0.00 0.00 84 1011.0
20260505022507 73 213 4.0 11.0 0.00 0.00 0.00 84 1010.9
20260505022011 73 182 5.0 14.0 0.00 0.00 0.00 84 1010.8
20260505021520 73 186 6.0 14.0 0.00 0.00 0.00 83 1010.8
20260505021011 73 177 5.0 12.0 0.00 0.00 0.00 83 1010.9
20260505020510 73 178 6.0 15.0 0.00 0.00 0.00 83 1010.9
20260505020031 73 192 5.0 15.0 0.00 0.00 0.00 83 1010.7
20260505015518 74 207 4.0 14.0 0.00 0.00 0.00 83 1010.7
20260505015010 74 198 4.0 11.0 0.00 0.00 0.00 82 1010.8
20260505014529 74 160 4.0 9.0 0.00 0.00 0.00 82 1010.8
20260505014012 74 167 4.0 15.0 0.00 0.00 0.00 82 1010.8
20260505013509 74 162 6.0 15.0 0.00 0.00 0.00 82 1010.6
20260505013024 74 160 5.0 13.0 0.00 0.00 0.00 82 1010.5
20260505012510 74 199 5.0 13.0 0.00 0.00 0.00 82 1010.4
20260505012010 74 51 4.0 10.0 0.00 0.00 0.00 81 1010.4
20260505011533 75 153 4.0 10.0 0.00 0.00 0.00 80 1010.4
20260505011010 75 167 3.0 10.0 0.00 0.00 0.00 80 1010.3
20260505010513 75 205 4.0 11.0 0.00 0.00 0.00 79 1010.4
20260505010026 75 163 5.0 11.0 0.00 0.00 0.00 79 1010.4
20260505005508 76 159 5.0 15.0 0.00 0.00 0.00 78 1010.4
20260505005008 76 193 6.0 15.0 0.00 0.00 0.00 78 1010.4
20260505004541 77 221 5.0 13.0 0.00 0.00 0.00 78 1010.4
20260505004009 77 182 5.0 13.0 0.00 0.00 0.00 77 1010.4
20260505003509 77 128 4.0 14.0 0.00 0.00 0.00 77 1010.3
20260505003029 77 148 4.0 14.0 0.00 0.00 0.00 77 1010.2
20260505002518 78 360 5.0 12.0 0.00 0.00 0.00 76 1010.3
20260505002017 78 148 5.0 12.0 0.00 0.00 0.00 76 1010.2
20260505001520 78 191 5.0 12.0 0.00 0.00 0.00 75 1010.2
20260505001017 79 190 4.0 11.0 0.00 0.00 0.00 75 1010.2